sat.trackr.live / text

‹ back to catalog

STARLINK-4481

NORAD 53418 · 2022-097AG

PAYLOAD ACTIVE UNKNOWN

§ Identity

Operator
Country
US
Launch date
2022-08-10
Launch site
AFETR
Launch vehicle
Mass (kg)
RCS (m²)

Purposes: comms

External: N2YO · Heavens-Above · Gunter

§ Orbital elements

Epoch: 2026-05-25T05:18:53.628192Z

Period
95.44 min
Inclination
53.2129°
Eccentricity
0.0001163
Mean motion
15.08849381 rev/d
Perigee alt
538.9 km
Apogee alt
540.5 km
Semi-major
6,917.9 km
B*
-1.6471e-4
RAAN
120.1193°
Arg perigee
75.6176°
Mean anomaly
284.4945°
Rev number
21,035

§ Raw data

STARLINK-44811 53418U 22097AG  26145.22145403 -.00002909  00000+0 -16471-3 0  99932 53418  53.2129 120.1193 0001163  75.6176 284.4945 15.08849381210359

JSON: /api/v1/satellites/53418 · /tle

For live sub-satellite position, see the globe view (requires WebGL).

§ Visibility from observer

Set your observer location to see the next 7 days of passes ≥ 10°. The values pass through the URL so the page stays shareable.

No JS? Fill the form by hand. The geolocation button needs JavaScript.